Overview Statistics Trail Chart Weather Telemetry Raw packets
 

This is the latest recevied weather packets stored in our database for station/object IU5GBO-13. If no packets are shown the sender has not sent any weather packets the latest 10 day(s).

<< 34 35 36 37 38 39 40 >>
Time Temp. Humidity Pressure Rain* Wind** Luminosity Snow
1777546573 23.33° C 30% 1020.3 hPa - - - -
1777545973 22.78° C 30% 1020 hPa - - - -
1777545373 22.78° C 31% 1020.2 hPa - - - -
1777544773 22.22° C 31% 1020.2 hPa - - - -
1777544173 22.22° C 32% 1020.1 hPa - - - -
1777543573 22.22° C 31% 1020.1 hPa - - - -
1777542973 22.22° C 31% 1020.1 hPa - - - -
1777542373 22.22° C 31% 1020.1 hPa - - - -
1777541773 22.22° C 30% 1020.1 hPa - - - -
1777541173 22.22° C 34% 1020.1 hPa - - - -
1777540573 22.22° C 34% 1019.9 hPa - - - -
1777539973 22.22° C 35% 1020 hPa - - - -
1777539373 21.67° C 36% 1019.9 hPa - - - -
1777538773 21.11° C 40% 1019.9 hPa - - - -
1777538173 20.56° C 42% 1019.9 hPa - - - -
1777537573 20° C 46% 1020 hPa - - - -
1777536973 20° C 47% 1019.8 hPa - - - -
1777536373 20° C 47% 1019.6 hPa - - - -
1777535780 20° C 46% 1019.7 hPa - - - -
1777535173 20° C 47% 1019.5 hPa - - - -
1777534573 18.89° C 50% 1019.5 hPa - - - -
1777533972 18.33° C 50% 1019.3 hPa - - - -
1777533373 18.89° C 51% 1019.3 hPa - - - -
1777532773 18.33° C 52% 1019.3 hPa - - - -
1777532173 18.33° C 52% 1019.1 hPa - - - -

* Rain since midnight (hover to see other rain measurements)
** Current wind speed in m/s (hover to see current wind gust speed)